Wind_Speed
34 35 35 35 35 32 31 31 31 32 34 35 32 30 29 27 26 26 28 27 22 21 20 21 21 20 20 18 15 16 18 23 29 26 32 39 44 44 46 50 44 43 42 43 42 41 38 36 36
32 35 36 37 37 35 31 30 31 30 31 31 32 31 27 27 26 25 25 25 24 23 21 21 22 24 24 22 20 18 16 17 22 29 32 33 35 43 48 47 47 45 43 41 41 41 40 38 37
28 30 33 38 39 38 34 31 29 30 30 32 32 30 28 27 28 27 23 21 22 22 20 23 24 24 24 25 25 22 21 19 19 22 27 31 35 38 44 51 53 51 46 42 41 38 39 38 38
27 29 32 34 36 36 34 32 30 29 27 28 31 31 31 27 26 27 26 21 18 18 21 21 22 27 26 25 25 27 27 24 23 21 22 26 30 35 41 46 55 56 49 46 41 39 38 39 38
25 28 30 31 33 34 34 32 30 28 26 26 24 26 28 28 24 26 27 25 16 19 16 20 24 23 26 28 27 28 29 30 27 24 22 25 29 31 35 43 51 55 54 52 46 41 39 39 39
24 25 27 29 32 32 31 28 27 28 27 28 23 23 25 27 28 27 24 26 25 22 24 23 22 26 27 25 30 29 32 31 32 30 25 24 27 32 32 36 42 53 55 56 49 44 42 41 40
24 27 28 30 32 34 33 31 30 25 26 27 26 25 24 27 30 32 30 27 26 30 30 27 24 24 23 26 25 30 29 34 33 34 32 25 26 28 31 32 38 42 56 59 55 49 45 43 44
22 29 31 33 31 32 32 32 26 24 25 26 23 24 23 30 32 32 34 32 30 33 38 33 31 28 26 28 29 26 31 28 36 35 35 33 25 26 28 33 32 35 45 54 58 54 50 49 47
21 25 32 38 37 34 31 31 27 22 26 25 23 25 26 28 29 31 34 36 39 40 41 38 40 36 36 33 27 30 34 36 32 37 37 37 30 26 28 31 33 33 36 45 54 56 54 50 49
23 24 32 39 42 40 34 32 31 27 31 27 28 30 31 31 34 33 34 35 36 39 40 42 42 40 41 41 36 31 35 35 37 37 40 38 37 29 26 30 33 35 34 39 47 54 53 52 51
24 27 33 37 40 38 34 30 31 34 33 33 34 34 37 42 36 37 39 40 42 42 41 41 42 40 44 45 46 39 37 36 38 38 41 42 39 34 27 30 33 36 36 34 30 52 60 56 56
27 30 34 38 41 43 35 31 36 37 39 40 43 44 45 41 42 42 42 45 47 47 44 45 46 45 43 45 46 49 43 41 40 40 39 45 40 38 32 28 31 34 38 41 55 45 46 54 63
30 31 37 40 43 44 40 37 39 39 44 47 46 48 47 46 47 47 47 48 45 44 47 51 51 47 46 44 48 49 50 45 41 44 43 41 44 38 37 31 32 34 38 44 63 58 41 54 52
34 36 37 40 44 45 42 37 40 42 44 47 47 47 49 49 51 51 53 50 49 51 53 56 57 54 49 48 48 53 52 52 47 46 46 47 46 40 38 36 32 34 38 45 59 75 61 56 51
37 36 36 41 44 47 48 37 46 52 54 52 48 50 52 55 55 56 53 52 56 59 59 59 62 63 59 55 53 54 55 59 54 49 48 51 47 43 39 39 35 37 37 43 51 68 54 56 46
38 42 43 43 46 49 46 43 45 55 59 59 55 55 59 60 58 55 54 57 60 62 67 71 70 70 67 63 59 60 61 65 58 53 51 52 50 45 41 39 37 37 38 41 49 65 59 48 46
38 43 44 44 47 51 49 47 52 54 56 57 59 64 65 60 59 58 61 62 65 68 73 77 75 61 64 64 65 64 66 67 62 57 54 53 54 48 43 40 39 35 39 40 43 59 62 58 55
42 44 46 48 48 54 50 51 52 56 59 60 66 68 65 63 61 64 66 70 73 78 82 83 85 71 63 69 67 70 72 71 65 60 57 55 57 50 46 44 42 41 37 41 43 45 58 57 42
47 48 48 48 51 55 54 53 54 58 58 64 65 70 68 66 68 71 72 73 78 82 87 88 82 73 55 64 71 73 77 73 69 64 60 60 58 54 50 46 45 44 40 40 43 49 49 60 64
43 48 50 51 53 56 57 59 65 62 67 69 68 67 70 73 71 74 73 78 83 87 90 91 71 51 53 56 68 76 76 75 68 67 65 64 61 59 52 49 46 46 42 41 42 48 47 52 51
46 49 52 56 57 60 62 66 69 68 70 70 71 73 74 75 76 78 82 84 88 90 96 92 77 60 60 64 64 66 76 75 73 63 68 67 65 62 58 54 50 50 45 40 46 49 55 47 48
54 54 55 55 59 63 65 71 69 69 73 73 74 73 74 76 77 81 85 89 92 95 95 86 70 60 62 70 69 69 64 67 76 72 66 67 66 59 63 59 56 51 50 46 43 45 47 46 44
54 56 54 57 62 69 71 74 72 73 74 75 74 75 76 77 81 85 89 95 97 94 87 75 67 62 58 64 71 76 68 63 74 75 70 68 69 67 69 54 59 51 52 51 48 44 42 43 47
58 58 59 62 65 74 76 74 71 73 77 78 78 77 75 80 81 85 90 92 88 74 71 64 58 56 54 56 68 76 80 63 64 78 73 63 70 68 70 63 59 55 52 53 49 44 39 46 46
61 62 65 64 68 72 74 76 74 77 79 78 80 78 77 79 83 89 92 88 71 60 42 47 45 42 43 46 54 70 76 78 55 65 75 59 48 72 72 64 63 60 56 53 50 47 44 45 49
64 63 63 68 70 73 69 74 76 77 78 79 79 78 79 81 86 89 86 65 56 40 38 39 41 35 36 38 42 57 80 75 79 59 68 75 51 50 70 70 64 64 59 54 53 52 46 47 53
65 63 63 69 73 73 71 73 73 75 74 75 76 77 78 84 85 83 75 60 48 42 41 42 45 43 40 40 38 41 65 79 84 70 61 70 74 50 53 75 70 68 63 57 56 56 48 45 53
65 65 66 73 71 73 70 72 73 73 73 72 71 73 78 82 83 79 69 55 45 44 44 50 48 45 44 45 42 39 44 70 80 84 68 72 68 73 52 64 71 68 64 60 58 58 53 49 48
65 66 68 70 69 75 76 67 64 72 75 76 74 74 81 85 84 78 68 55 51 42 45 49 53 51 45 44 42 42 40 60 72 84 73 73 71 79 67 62 68 72 67 64 61 61 56 52 52
68 67 70 71 72 73 72 71 68 69 75 75 74 79 84 86 82 73 64 56 46 43 46 52 52 50 51 47 40 44 41 46 71 77 80 78 76 79 71 58 73 82 72 66 63 63 58 55 49
Wind_Direction
24 22 21 18 17 16 16 14 7 8 13 16 19 19 21 18 19 18 17 16 1 345 340 333 326 323 324 323 329 316 293 267 255 257 253 253 250 249 248 238 241 241 240 240 239 238 235 234 230
20 19 18 17 17 12 11 10 10 6 5 7 10 12 13 12 11 9 12 15 16 6 351 339 334 326 316 316 313 316 310 297 278 261 255 253 252 247 239 241 246 244 241 241 239 237 237 234 232
11 7 11 12 10 8 3 4 4 4 2 358 357 360 3 0 358 359 356 357 3 3 5 353 337 327 320 311 309 304 302 306 297 284 271 263 258 252 244 242 247 248 241 239 238 238 235 231 231
1 2 3 4 3 360 357 354 354 356 358 355 350 345 346 351 344 343 341 350 351 356 358 356 350 341 321 314 305 301 299 297 300 301 287 274 266 260 255 244 237 242 245 241 238 235 235 231 227
354 356 350 353 351 351 350 348 346 346 346 344 339 337 335 333 336 329 330 335 327 338 338 340 338 340 335 315 309 300 291 296 293 294 291 285 272 262 259 249 237 235 238 236 237 239 233 231 225
345 346 340 341 341 343 344 343 341 336 334 333 328 324 321 320 320 319 314 322 321 317 320 323 324 326 330 325 311 304 295 286 290 290 287 285 282 272 261 256 247 239 231 232 236 237 231 230 225
338 339 340 343 341 339 340 339 337 332 325 323 322 318 312 306 311 309 310 306 310 314 309 307 307 312 314 317 314 312 297 291 281 284 287 281 286 279 265 254 245 247 236 229 233 234 230 227 223
340 343 339 336 335 338 342 341 341 334 320 322 322 314 307 306 310 308 308 305 302 309 312 302 300 299 303 302 306 304 306 296 289 278 280 282 278 278 267 255 245 247 241 234 232 232 229 226 224
338 337 332 330 330 332 340 342 342 333 318 322 319 311 312 311 311 310 313 315 314 311 312 311 307 296 301 291 287 297 306 294 291 283 273 277 276 273 264 254 250 248 247 236 230 230 231 228 224
324 327 330 327 328 330 333 341 338 328 325 319 315 312 312 310 314 315 317 315 313 310 307 303 299 295 293 295 283 276 287 287 291 283 272 269 274 268 262 253 247 246 248 237 229 230 230 229 224
317 326 327 325 323 323 330 340 335 332 324 321 317 314 313 318 316 314 314 312 310 308 304 299 296 295 287 296 288 279 276 272 283 284 273 264 267 267 260 253 247 242 239 232 224 241 233 230 224
315 320 322 322 320 322 332 339 333 332 322 317 316 317 316 316 315 314 312 310 309 307 303 301 300 293 286 278 281 286 275 264 275 278 268 266 261 263 258 249 245 243 231 223 210 220 198 217 224
312 317 317 316 317 323 332 337 332 328 319 318 315 318 317 318 317 313 309 306 304 302 300 298 297 294 287 279 271 273 277 262 264 273 266 261 260 259 255 252 245 244 236 228 215 213 208 203 216
312 314 314 314 319 323 331 336 328 325 315 312 317 318 319 319 314 309 307 305 305 306 305 303 300 296 287 278 273 261 266 263 258 263 261 257 256 253 250 249 248 246 242 233 224 222 223 230 219
307 309 310 315 318 322 325 331 324 320 317 314 318 319 317 314 311 307 308 309 308 306 304 301 296 291 283 274 266 257 259 260 254 251 255 253 253 249 246 244 248 243 245 236 229 224 232 227 229
305 307 309 315 318 318 321 323 320 317 316 319 319 316 315 312 311 311 310 307 304 303 300 296 291 285 281 275 263 255 253 249 250 247 252 249 249 245 241 242 243 245 243 241 232 226 228 240 241
313 312 311 313 315 316 320 320 319 314 314 314 313 313 315 315 313 310 308 304 301 303 300 293 291 280 274 268 264 256 250 249 246 242 247 244 244 243 238 237 240 244 241 240 235 229 230 235 239
309 306 307 308 312 316 317 318 317 312 313 314 313 314 316 311 307 306 305 305 303 300 295 291 286 284 265 255 256 254 248 246 242 239 238 238 242 240 239 234 237 244 245 240 236 237 235 232 239
307 307 309 313 317 315 314 314 311 311 312 315 314 315 313 310 309 307 307 305 304 300 296 294 289 285 266 254 251 250 248 247 242 240 234 236 238 238 236 235 233 243 246 242 240 240 234 237 236
309 310 315 319 317 316 312 310 311 315 317 314 314 314 311 311 309 309 306 306 305 300 292 288 290 272 264 255 246 248 246 244 242 238 232 234 234 237 233 232 231 234 238 241 232 236 237 234 242
312 315 317 318 317 314 313 313 317 318 315 317 317 317 312 311 312 311 309 308 304 298 292 291 290 275 258 253 246 246 244 242 239 236 234 230 231 233 232 230 227 227 229 237 232 228 235 235 237
315 315 316 316 315 314 317 316 317 319 318 318 317 313 313 314 312 310 309 306 301 298 298 300 290 274 258 246 245 238 231 236 238 233 233 228 231 231 231 230 227 224 226 229 232 232 234 229 233
312 312 314 315 315 316 316 318 319 320 320 315 314 314 317 315 314 314 311 307 306 307 307 299 293 284 268 254 241 239 234 227 229 231 227 230 227 227 229 227 230 223 224 227 231 230 234 227 227
311 312 313 316 317 317 318 317 321 319 316 316 317 319 319 316 315 312 309 309 311 306 303 302 302 294 284 267 246 237 235 234 219 225 223 226 227 228 230 228 225 224 222 225 228 230 227 230 226
312 315 315 316 316 318 318 316 318 317 315 318 319 319 319 318 316 314 312 311 308 308 304 305 309 310 295 275 261 238 235 232 222 221 217 214 224 228 228 225 224 224 222 222 222 223 221 225 214
310 312 314 314 313 315 316 314 315 316 319 319 320 319 318 319 318 316 314 312 308 302 301 303 309 315 310 304 286 253 239 233 231 220 218 210 215 226 231 221 227 226 224 219 217 218 218 226 212
309 310 311 310 312 311 315 314 314 315 315 317 316 317 319 320 318 317 315 310 299 294 294 299 301 299 300 296 295 285 245 233 233 226 227 208 212 212 235 227 226 225 222 217 217 215 215 224 214
307 307 312 310 310 308 314 313 315 313 314 314 313 317 319 319 321 319 314 306 293 282 290 305 306 307 300 291 285 288 259 240 229 226 221 215 209 208 220 229 222 218 218 217 215 213 208 216 220
306 308 308 307 307 308 311 314 316 312 312 314 318 319 321 326 327 323 318 314 305 275 294 307 308 304 312 304 285 280 281 237 229 220 219 213 208 210 218 222 227 218 214 214 213 213 208 209 210
305 307 308 305 306 309 309 318 310 312 314 315 319 321 325 328 328 324 319 315 305 281 301 304 302 301 306 306 295 280 284 240 228 214 214 207 204 207 212 213 223 221 215 213 212 213 209 209 206
Height
5869 5866 5863 5861 5860 5855 5853 5851 5847 5844 5840 5837 5834 5831 5828 5826 5824 5823 5818 5816 5814 5812 5809 5807 5806 5803 5800 5799 5798 5796 5795 5794 5793 5794 5794 5793 5795 5798 5800 5802 5804 5807 5809 5812 5814 5816 5819 5822 5824
5869 5866 5864 5861 5860 5856 5854 5851 5847 5844 5840 5837 5834 5830 5827 5824 5821 5820 5818 5815 5812 5810 5809 5806 5804 5801 5798 5796 5794 5793 5792 5791 5790 5789 5789 5790 5788 5790 5793 5796 5798 5802 5804 5806 5809 5810 5813 5816 5818
5869 5865 5864 5861 5858 5855 5853 5850 5847 5844 5841 5837 5833 5829 5826 5823 5819 5817 5815 5812 5811 5809 5807 5804 5801 5798 5795 5793 5791 5789 5786 5786 5786 5785 5784 5783 5783 5783 5783 5787 5791 5795 5799 5800 5803 5806 5807 5810 5812
5868 5865 5863 5860 5857 5854 5852 5849 5846 5844 5841 5838 5832 5829 5825 5821 5818 5814 5812 5810 5808 5805 5804 5801 5799 5795 5792 5790 5787 5785 5783 5780 5779 5779 5778 5777 5776 5776 5777 5777 5781 5786 5791 5795 5797 5800 5802 5804 5806
5866 5863 5861 5859 5856 5853 5850 5847 5843 5841 5838 5835 5831 5827 5823 5819 5815 5811 5809 5806 5804 5802 5800 5798 5796 5793 5790 5785 5782 5780 5778 5777 5774 5773 5772 5771 5769 5769 5769 5770 5772 5775 5781 5786 5790 5793 5796 5798 5801
5865 5862 5860 5857 5854 5851 5846 5843 5840 5837 5834 5831 5827 5823 5819 5815 5811 5809 5806 5803 5799 5797 5795 5793 5791 5789 5786 5782 5779 5775 5772 5770 5768 5767 5765 5764 5762 5761 5760 5761 5763 5767 5770 5776 5780 5785 5788 5792 5795
5862 5859 5857 5855 5852 5847 5844 5840 5837 5832 5828 5825 5821 5818 5815 5809 5807 5803 5800 5798 5796 5792 5789 5786 5784 5782 5781 5778 5775 5771 5767 5764 5762 5761 5758 5756 5755 5753 5752 5753 5755 5757 5761 5766 5769 5776 5780 5783 5787
5861 5856 5852 5849 5846 5844 5841 5837 5832 5827 5821 5817 5815 5811 5808 5803 5801 5797 5794 5792 5790 5787 5783 5781 5777 5774 5773 5772 5770 5765 5761 5758 5754 5753 5752 5750 5747 5747 5746 5746 5747 5749 5752 5756 5761 5766 5769 5773 5779
5856 5853 5846 5841 5839 5838 5836 5831 5826 5820 5814 5810 5807 5802 5799 5796 5794 5792 5789 5786 5783 5780 5778 5775 5770 5767 5764 5762 5761 5759 5755 5752 5749 5745 5744 5743 5741 5739 5739 5738 5739 5742 5744 5747 5752 5756 5761 5765 5769
5853 5850 5846 5840 5834 5831 5828 5825 5818 5813 5807 5803 5800 5795 5791 5787 5786 5785 5784 5780 5777 5774 5771 5767 5764 5761 5756 5754 5751 5749 5748 5744 5741 5739 5735 5735 5734 5732 5731 5731 5732 5734 5737 5740 5745 5748 5754 5755 5759
5849 5847 5843 5837 5830 5824 5822 5818 5812 5807 5801 5797 5792 5788 5782 5780 5780 5777 5773 5769 5768 5764 5760 5757 5754 5751 5748 5746 5741 5739 5738 5735 5732 5728 5726 5725 5725 5725 5723 5724 5725 5725 5729 5736 5739 5738 5742 5745 5748
5845 5842 5837 5831 5824 5819 5817 5811 5804 5800 5793 5788 5784 5781 5777 5774 5770 5767 5763 5760 5758 5754 5749 5746 5744 5742 5737 5735 5733 5729 5727 5725 5723 5719 5716 5715 5715 5716 5716 5715 5716 5717 5720 5726 5721 5723 5717 5724 5734
5840 5837 5831 5825 5817 5813 5811 5805 5797 5792 5783 5778 5775 5772 5768 5761 5759 5756 5752 5748 5746 5743 5739 5734 5730 5727 5725 5722 5719 5717 5716 5714 5711 5710 5705 5704 5704 5705 5706 5706 5707 5708 5710 5714 5715 5712 5714 5718 5727
5834 5831 5826 5818 5811 5807 5805 5801 5789 5783 5773 5767 5767 5764 5760 5755 5749 5743 5736 5733 5730 5728 5726 5721 5716 5712 5709 5707 5705 5703 5700 5700 5698 5697 5695 5693 5692 5693 5695 5696 5697 5699 5700 5702 5705 5703 5708 5712 5718
5827 5825 5819 5812 5804 5799 5798 5797 5783 5775 5766 5760 5757 5753 5748 5742 5736 5730 5725 5720 5716 5711 5707 5705 5701 5695 5692 5689 5684 5685 5685 5682 5684 5683 5681 5681 5681 5680 5684 5685 5687 5688 5689 5691 5692 5695 5699 5706 5709
5820 5817 5812 5807 5798 5790 5789 5787 5779 5768 5756 5753 5749 5743 5736 5730 5723 5717 5712 5707 5700 5693 5685 5679 5677 5674 5670 5669 5666 5664 5664 5665 5666 5667 5667 5668 5669 5670 5671 5675 5677 5677 5679 5681 5682 5686 5692 5696 5702
5813 5807 5804 5801 5794 5782 5779 5774 5766 5756 5748 5741 5736 5730 5724 5717 5709 5702 5695 5687 5681 5675 5668 5659 5647 5646 5646 5645 5645 5643 5645 5645 5647 5650 5652 5653 5655 5658 5659 5662 5666 5667 5669 5671 5674 5678 5683 5688 5693
5803 5798 5795 5790 5785 5774 5765 5760 5757 5744 5741 5734 5722 5715 5708 5699 5693 5685 5677 5669 5660 5649 5639 5632 5626 5617 5617 5619 5619 5621 5622 5625 5627 5631 5634 5637 5640 5644 5647 5651 5654 5657 5659 5661 5666 5668 5674 5680 5683
5793 5788 5782 5778 5774 5767 5755 5751 5743 5735 5729 5722 5713 5701 5694 5685 5676 5667 5658 5650 5639 5624 5609 5593 5589 5587 5588 5594 5597 5597 5600 5604 5607 5612 5617 5621 5625 5630 5635 5638 5642 5646 5649 5651 5655 5660 5663 5667 5672
5782 5777 5772 5768 5760 5755 5748 5739 5731 5723 5716 5707 5698 5688 5676 5667 5659 5649 5640 5629 5617 5601 5587 5571 5562 5564 5565 5566 5572 5574 5576 5582 5587 5593 5599 5604 5609 5615 5620 5624 5630 5633 5638 5640 5643 5647 5653 5659 5662
5771 5763 5758 5754 5746 5736 5731 5723 5711 5705 5699 5690 5680 5668 5658 5649 5638 5626 5615 5604 5589 5572 5552 5538 5535 5538 5539 5538 5542 5548 5554 5558 5565 5574 5580 5588 5593 5599 5605 5609 5614 5619 5625 5630 5633 5637 5644 5649 5652
5757 5751 5746 5741 5733 5726 5713 5706 5700 5693 5683 5674 5664 5657 5646 5634 5621 5606 5590 5575 5557 5539 5522 5510 5499 5504 5505 5507 5513 5518 5527 5537 5544 5554 5563 5571 5578 5586 5594 5596 5600 5606 5613 5618 5622 5627 5634 5639 5644
5745 5739 5734 5727 5718 5707 5699 5690 5683 5674 5666 5657 5650 5638 5627 5610 5594 5579 5564 5542 5523 5507 5495 5484 5477 5477 5478 5479 5484 5489 5498 5510 5521 5533 5543 5552 5561 5565 5574 5576 5587 5594 5600 5607 5611 5617 5623 5630 5636
5731 5726 5719 5714 5704 5692 5683 5673 5675 5659 5647 5636 5628 5617 5604 5589 5580 5563 5543 5523 5504 5489 5479 5466 5460 5455 5454 5457 5459 5466 5473 5484 5494 5510 5524 5534 5545 5550 5559 5567 5572 5581 5587 5594 5600 5607 5613 5620 5626
5717 5710 5701 5700 5692 5686 5670 5655 5646 5640 5627 5618 5608 5598 5587 5573 5558 5535 5516 5501 5486 5475 5466 5456 5448 5441 5434 5436 5439 5445 5450 5461 5471 5486 5502 5516 5528 5538 5546 5553 5558 5568 5575 5582 5588 5596 5603 5611 5617
5704 5698 5689 5676 5673 5672 5670 5647 5634 5623 5609 5600 5589 5578 5566 5555 5537 5519 5498 5481 5470 5461 5454 5447 5437 5433 5426 5424 5424 5426 5429 5442 5450 5462 5476 5492 5505 5519 5530 5540 5547 5553 5563 5570 5577 5584 5591 5599 5605
5691 5684 5677 5664 5656 5649 5649 5636 5625 5609 5601 5590 5579 5565 5553 5536 5522 5504 5483 5470 5459 5451 5442 5435 5429 5425 5419 5414 5412 5410 5411 5421 5431 5442 5457 5472 5489 5500 5511 5523 5530 5534 5549 5557 5565 5571 5580 5588 5596
5678 5669 5661 5648 5639 5631 5639 5625 5608 5593 5589 5585 5574 5560 5542 5528 5508 5488 5472 5456 5447 5437 5430 5423 5416 5411 5408 5403 5399 5397 5396 5398 5412 5425 5439 5452 5467 5483 5489 5504 5511 5520 5534 5545 5553 5561 5568 5577 5584
5662 5655 5648 5638 5629 5615 5608 5618 5599 5580 5566 5558 5553 5540 5523 5505 5483 5462 5448 5441 5428 5423 5417 5411 5403 5397 5393 5389 5385 5382 5380 5381 5391 5408 5420 5433 5449 5464 5472 5484 5499 5506 5519 5531 5540 5550 5557 5567 5577
5648 5640 5633 5620 5614 5604 5594 5596 5583 5569 5553 5539 5534 5516 5504 5488 5469 5450 5434 5424 5415 5409 5404 5397 5390 5382 5377 5373 5369 5366 5364 5363 5369 5388 5404 5416 5430 5445 5459 5470 5483 5494 5505 5518 5529 5540 5548 5555 5566